Regional Weather Roundup
Issued by NWS Kansas City/Pleasant Hill, MO

Home | Current Version | Previous Version | Graphics & Text | Print | Product List | Glossary Off
Versions: 1 2 3 4 5 6 7 8 9 10 11 12 13 14 15 16 17 18 19 20 21 22 23 24 25 26 27 28 29 30 31 32 33 34 35 36 37 38 39 40 41 42 43 44 45 46 47 48 49 50

000
ASUS43 KEAX 241210
RWREAX

WEATHER ROUNDUP FOR EASTERN KANSAS AND NORTHWEST MISSOURI
NATIONAL WEATHER SERVICE KANSAS CITY/PLEASANT HILL MO
700 AM CDT SUN SEP 24 2017

KSZ040-057-103>105-MOZ028-029-037-043-241300-
...KANSAS CITY METROPOLITAN AREA...

CITY           SKY/WX    TMP DP  RH WIND       PRES   REMARKS
K.C. INTL      CLEAR     69  65  86 S9        29.96R
6HR MIN TEMP:  67; 6HR MAX TEMP:  72;

K.C. DOWNTOWN  CLEAR     73  66  78 SW6       29.95S
6HR MIN TEMP:  73; 6HR MAX TEMP:  79;

LEES SUMMIT    CLEAR     71  66  84 S8        29.98R
6HR MIN TEMP:  71; 6HR MAX TEMP:  76;

OLATHE - IXD   CLEAR     70  64  81 S9        29.97S
6HR MIN TEMP:  69; 6HR MAX TEMP:  74;

OLATHE - OJC   CLEAR     67  66  97 S3        29.97S
6HR MIN TEMP:  67; 6HR MAX TEMP:  73;

LAWRENCE       CLEAR     68  66  93 E7        29.95R

$$

MOZ001>008-011>017-020>025-030>033-038>040-044>046-053-054-241300-
...NORTHERN AND CENTRAL MISSOURI...

CITY           SKY/WX    TMP DP  RH WIND       PRES   REMARKS
ST. JOSEPH     CLEAR     69  67  93 SE5       29.95R
6HR MIN TEMP:  64; 6HR MAX TEMP:  70;

MOSBY          SUNNY     68  64  88 SE5       29.97S
WARRENSBURG    CLEAR     68  63  83 CALM      29.99R
WHITEMAN AFB   CLEAR     68  68 100 S6        29.99R
6HR MIN TEMP:  67; 6HR MAX TEMP:  74;

CLINTON        CLEAR     68  64  88 MISG      30.00R
SEDALIA        CLEAR     67  66  97 S5        30.02R
6HR MIN TEMP:  67; 6HR MAX TEMP:  72;

WARSAW         NOT AVBL
CHILLICOTHE      N/A     69  66  90 S3        29.99S
6HR MIN TEMP:  68; 6HR MAX TEMP:  73;

KIRKSVILLE     CLEAR     64  61  90 SE6       30.02R
6HR MIN TEMP:  63; 6HR MAX TEMP:  71;


$$

MOZ041-047>049-056>058-063>065-088>090-097-241300-
...EASTERN AND SOUTHERN MISSOURI...

CITY           SKY/WX    TMP DP  RH WIND       PRES   REMARKS
ST. LOUIS INTL PTCLDY    70  64  81 E3        30.05R
6HR MIN TEMP:  69; 6HR MAX TEMP:  79;

SPIRIT OF STL  CLEAR     66  65  96 CALM      30.04R FOG
COLUMBIA       CLEAR     69  64  84 SE6       30.03R
JEFFERSON CITY CLEAR     66  62  87 SE7       30.02R
ROLLA          CLEAR     67  64  90 CALM      30.05R
OSAGE BEACH    CLEAR     66  63  90 SE5       30.03R
SPRINGFIELD    CLEAR     67  64  90 SE5       30.01R
BRANSON        CLEAR     66  64  94 CALM      30.03S
JOPLIN         CLEAR     70  67  90 SE8       29.98S
WEST PLAINS    CLEAR     64  62  93 CALM      30.05R

$$

IAZ060-094-KSZ022-034>040-054-083-096-NEZ052-066-093-241300-
...KANSAS...SOUTHEAST NEBRASKA AND IOWA...

CITY           SKY/WX    TMP DP  RH WIND       PRES   REMARKS
TOPEKA         CLEAR     67  66  97 E6        29.93S
6HR MIN TEMP:  67; 6HR MAX TEMP:  70;

MANHATTAN      PTCLDY    72  63  73 S3        29.91R
EMPORIA        CLEAR     68  63  84 S9        29.94R
CHANUTE        CLEAR     67  64  90 SE7       29.96R
WICHITA        PTCLDY    70  66  87 SE10      29.90S
OMAHA          PTCLDY    71  64  78 S9        29.92S
LINCOLN        PTCLDY    69  62  78 S9        29.90F
FALLS CITY     CLEAR     67  64  90 SE3       29.92R
LAMONI         CLEAR     68  63  84 SE6       29.98R
DES MOINES     PTCLDY    70  63  78 SE7       29.96S

$$




USA.gov is the U.S. government's official web portal to all federal, state and local government web resources and services.